�N����,����,�~����,�C��,���x,�C��,����,���ϕ���,�ő�u�ԕ���,�ő厞����,���˗�,�I�_���x,�n�����x,�ő啗���N��,DTYPE
"16/12/20","00:10",0.0,4.1,97.4,1019.2,328.0,1.2,2.4,313.8,0.00,3.8,7.6,"00:07:52",1
"16/12/20","00:20",0.0,3.7,98.9,1019.0,322.4,2.0,2.5,322.2,0.00,3.6,7.7,"00:11:12",1
"16/12/20","00:30",0.0,3.9,97.8,1019.7,302.3,1.2,2.2,325.4,0.00,3.6,7.7,"00:20:08",1
"16/12/20","00:40",0.0,3.7,99.1,1019.2,300.1,1.2,2.0,320.5,0.00,3.6,7.8,"00:38:56",1
"16/12/20","00:50",0.0,3.9,98.1,1019.2,297.7,1.3,2.1,322.0,0.00,3.7,7.5,"00:41:28",1
"16/12/20","01:00",0.0,4.2,98.9,1019.0,304.2,1.6,2.5,323.7,0.00,4.1,7.7,"00:55:04",1
"16/12/20","01:10",0.0,4.7,98.3,1019.4,278.8,0.6,2.0,311.9,0.00,4.5,7.7,"01:09:34",1
"16/12/20","01:20",0.0,4.9,98.3,1019.4,290.7,0.6,2.5,315.9,0.00,4.7,7.9,"01:10:32",1
"16/12/20","01:30",0.0,5.0,97.8,1019.4,305.2,1.3,2.9,314.3,0.00,4.7,7.6,"01:28:48",1
"16/12/20","01:40",0.0,4.7,99.1,1019.4,310.5,2.6,3.1,319.7,0.00,4.6,7.5,"01:32:32",1
"16/12/20","01:50",0.0,5.1,98.4,1019.7,300.9,2.0,2.5,315.5,0.00,4.9,7.7,"01:40:02",1
"16/12/20","02:00",0.0,5.4,98.2,1019.7,307.7,2.2,2.8,312.9,0.00,5.2,7.5,"01:59:28",1
"16/12/20","02:10",0.0,5.4,97.9,1019.4,291.5,1.5,2.2,309.4,0.00,5.1,7.7,"02:00:08",1
"16/12/20","02:20",0.0,5.2,98.9,1019.9,303.9,2.0,2.6,313.3,0.00,5.1,7.6,"02:16:24",1
"16/12/20","02:30",0.0,5.5,98.2,1019.9,276.9,1.7,2.0,290.4,0.00,5.3,7.6,"02:27:52",1
"16/12/20","02:40",0.0,5.6,98.0,1019.9,297.7,1.6,2.5,315.4,0.00,5.3,7.7,"02:30:48",1
"16/12/20","02:50",0.0,5.6,97.9,1019.9,285.8,1.0,1.8,281.7,0.00,5.3,7.8,"02:41:28",1
"16/12/20","03:00",0.0,5.5,98.8,1020.1,295.4,1.6,2.6,310.1,0.00,5.4,7.7,"02:53:04",1
"16/12/20","03:10",0.0,5.7,98.0,1019.9,296.5,1.6,2.4,313.1,0.00,5.4,7.9,"03:01:52",1
"16/12/20","03:20",0.0,5.8,97.9,1020.1,307.5,2.2,2.8,315.0,0.00,5.5,8.0,"03:16:56",1
"16/12/20","03:30",0.0,5.5,98.7,1020.1,293.3,1.3,2.2,311.5,0.00,5.4,7.7,"03:20:08",1
"16/12/20","03:40",0.0,5.7,98.0,1019.7,299.7,2.1,2.7,314.2,0.00,5.4,7.8,"03:33:04",1
"16/12/20","03:50",0.0,5.7,97.9,1019.4,302.1,2.0,2.4,318.3,0.00,5.4,7.9,"03:42:56",1
"16/12/20","04:00",0.0,5.5,98.9,1019.2,299.1,1.3,1.9,308.0,0.00,5.4,7.9,"03:53:28",1
"16/12/20","04:10",0.0,5.7,98.1,1019.4,303.5,1.8,2.4,307.8,0.00,5.5,8.0,"04:04:16",1
"16/12/20","04:20",0.0,5.7,97.9,1019.4,296.8,1.7,1.9,304.2,0.00,5.4,8.0,"04:18:24",1
"16/12/20","04:30",0.0,5.6,98.9,1019.4,297.0,1.2,2.1,309.9,0.00,5.5,7.9,"04:29:52",1
"16/12/20","04:40",0.0,5.8,98.2,1019.7,310.5,2.5,2.9,316.9,0.00,5.6,7.8,"04:30:48",1
"16/12/20","04:50",0.0,5.9,97.9,1019.4,299.7,1.6,2.4,311.9,0.00,5.6,8.2,"04:49:12",1
"16/12/20","05:00",0.0,5.7,99.0,1019.4,308.3,2.1,2.4,310.7,0.00,5.6,7.7,"04:50:16",1
"16/12/20","05:10",0.0,6.0,98.2,1019.9,305.9,2.2,2.7,314.9,0.00,5.8,7.9,"05:09:28",1
"16/12/20","05:20",0.0,6.0,98.1,1019.7,309.5,2.1,2.6,313.7,0.00,5.8,8.0,"05:18:08",1
"16/12/20","05:30",0.0,6.2,97.9,1019.7,309.3,1.8,2.2,322.5,0.00,5.9,8.0,"05:22:48",1
"16/12/20","05:40",0.0,6.0,98.7,1019.7,293.4,1.8,2.5,311.1,0.00,5.9,8.0,"05:32:16",1
"16/12/20","05:50",0.0,6.1,98.0,1019.7,287.8,1.7,1.9,286.9,0.00,5.8,8.0,"05:44:24",1
"16/12/20","06:00",0.0,6.2,98.0,1019.9,302.8,1.8,2.7,323.4,0.00,5.9,8.0,"05:57:44",1
"16/12/20","06:10",0.0,6.3,97.8,1020.1,321.6,2.5,3.3,323.8,0.00,6.0,8.1,"06:07:04",1
"16/12/20","06:20",0.0,6.1,98.7,1019.9,305.5,2.2,2.8,324.1,0.00,6.0,8.0,"06:14:24",1
"16/12/20","06:30",0.0,6.4,98.1,1019.9,291.3,1.5,2.6,322.7,0.00,6.2,8.0,"06:26:44",1
"16/12/20","06:40",0.0,6.5,97.9,1019.9,288.0,1.6,2.0,285.1,0.00,6.2,8.0,"06:34:18",1
"16/12/20","06:50",0.0,6.4,98.6,1020.1,321.7,1.8,2.8,324.7,0.00,6.2,8.0,"06:45:40",1
"16/12/20","07:00",0.0,6.6,97.7,1019.9,278.4,1.3,3.3,321.0,0.00,6.3,8.2,"06:52:10",1
"16/12/20","07:10",0.0,6.5,98.7,1019.7,307.8,1.6,2.4,320.8,0.00,6.4,7.7,"07:09:08",1
"16/12/20","07:20",0.0,6.8,97.6,1020.6,313.0,2.1,3.4,318.7,0.00,6.5,8.1,"07:13:26",1
"16/12/20","07:30",0.0,6.6,98.7,1020.6,326.0,1.7,2.1,316.0,0.00,6.5,8.0,"07:29:50",1
"16/12/20","07:40",0.0,7.0,97.6,1020.1,320.1,1.5,2.6,318.9,0.00,6.7,7.9,"07:30:30",1
"16/12/20","07:50",0.0,6.8,98.4,1020.4,310.3,2.5,3.2,324.9,0.00,6.6,8.1,"07:48:16",1
"16/12/20","08:00",0.0,7.2,97.5,1020.1,312.2,2.1,2.8,322.5,0.00,6.9,8.1,"07:50:46",1
"16/12/20","08:10",0.0,7.1,98.4,1020.1,272.4,1.1,1.7,284.7,0.01,6.9,8.2,"08:00:14",1
"16/12/20","08:20",0.0,7.6,97.2,1019.9,320.9,1.8,2.5,323.6,0.01,7.2,8.0,"08:13:18",1
"16/12/20","08:30",0.0,7.5,97.8,1020.1,316.8,1.5,1.9,341.9,0.00,7.2,8.2,"08:20:34",1
"16/12/20","08:40",0.0,7.6,97.6,1020.6,304.6,1.6,2.0,324.7,0.00,7.3,8.2,"08:37:16",1
"16/12/20","08:50",0.0,7.8,97.5,1020.6,323.0,1.0,1.7,304.8,0.03,7.5,8.2,"08:47:36",1
"16/12/20","09:00",0.0,8.3,97.3,1020.6,303.6,1.1,1.9,334.3,0.09,7.9,8.3,"08:55:20",1
"16/12/20","09:10",0.0,8.8,96.8,1020.8,319.7,0.8,2.0,315.7,0.08,8.4,8.6,"09:04:00",1
"16/12/20","09:20",0.0,9.0,95.7,1021.1,239.0,0.8,1.7,244.9,0.06,8.4,8.4,"09:14:08",1
"16/12/20","09:30",0.0,9.2,95.2,1020.8,291.8,0.3,0.9,300.1,0.05,8.5,8.5,"09:27:44",1
"16/12/20","09:40",0.0,9.4,94.5,1020.8,227.4,0.3,0.8,236.2,0.06,8.6,8.6,"09:30:32",1
"16/12/20","09:50",0.0,9.5,93.9,1021.3,284.3,0.2,1.0,162.1,0.06,8.6,8.7,"09:40:48",1
"16/12/20","10:00",0.0,9.6,93.3,1020.8,323.0,0.3,1.0,321.9,0.05,8.6,8.8,"09:54:40",1
"16/12/20","10:10",0.0,9.6,92.2,1021.1,274.2,0.6,1.0,269.6,0.03,8.4,9.0,"10:09:20",1
"16/12/20","10:20",0.0,9.8,91.4,1021.3,271.2,0.7,1.0,250.8,0.04,8.5,8.8,"10:14:56",1
"16/12/20","10:30",0.0,9.9,90.9,1021.1,294.6,1.0,1.1,284.6,0.03,8.5,9.1,"10:25:36",1
"16/12/20","10:40",0.2,10.0,91.1,1021.5,308.3,1.0,2.0,329.9,0.05,8.7,9.1,"10:39:52",1
"16/12/20","10:50",0.0,10.1,90.9,1021.5,309.6,1.3,2.4,322.2,0.08,8.7,9.2,"10:40:48",1
"16/12/20","11:00",0.0,10.1,89.3,1021.3,285.6,1.0,1.2,260.4,0.05,8.5,9.1,"10:51:12",1
"16/12/20","11:10",0.0,10.2,89.2,1021.5,309.0,1.2,2.2,324.7,0.01,8.5,9.1,"11:08:16",1
"16/12/20","11:20",0.0,10.2,89.8,1021.1,299.1,1.2,1.7,323.0,0.03,8.6,9.3,"11:16:00",1
"16/12/20","11:30",0.0,10.3,89.6,1021.1,301.7,1.3,1.7,315.0,0.06,8.7,9.4,"11:22:56",1
"16/12/20","11:40",0.0,10.6,88.9,1020.8,307.4,1.2,1.6,307.1,0.09,8.9,9.2,"11:33:12",1
"16/12/20","11:50",0.0,10.6,88.8,1021.3,306.6,0.8,1.9,324.4,0.04,8.9,9.5,"11:41:36",1
"16/12/20","12:00",0.0,10.7,89.2,1021.3,310.8,0.5,1.0,334.2,0.09,9.0,9.4,"11:53:36",1
"16/12/20","12:10",0.0,10.9,89.2,1021.3,303.3,0.5,1.0,302.6,0.09,9.2,9.5,"12:07:52",1
"16/12/20","12:20",0.0,11.0,89.1,1020.8,111.2,0.5,1.0,135.7,0.10,9.3,9.7,"12:14:32",1
"16/12/20","12:30",0.0,11.2,89.3,1021.1,296.9,0.5,1.0,294.9,0.11,9.5,9.6,"12:24:24",1
"16/12/20","12:40",0.0,11.1,88.6,1020.8,339.8,0.2,0.6,189.8,0.05,9.3,9.9,"12:35:28",1
"16/12/20","12:50",0.0,11.2,88.6,1020.8,283.7,0.6,1.2,254.1,0.08,9.4,9.7,"12:42:16",1
"16/12/20","13:00",0.0,11.3,89.0,1020.4,287.5,0.8,1.6,304.6,0.10,9.6,9.8,"12:57:20",1
"16/12/20","13:10",0.2,11.5,89.6,1020.4,276.5,0.7,1.1,307.4,0.18,9.9,9.8,"13:02:00",1
"16/12/20","13:20",0.0,11.6,89.6,1020.1,248.9,1.0,1.7,245.5,0.14,10.0,9.8,"13:19:28",1
"16/12/20","13:30",0.0,11.5,89.4,1020.4,239.0,0.7,1.3,252.6,0.07,9.9,10.2,"13:25:36",1
"16/12/20","13:40",0.0,11.3,89.6,1019.9,285.5,0.5,1.1,309.1,0.01,9.7,10.2,"13:39:20",1
"16/12/20","13:50",0.0,11.1,89.7,1020.4,269.9,0.8,1.1,259.2,0.00,9.5,10.0,"13:45:36",1
"16/12/20","14:00",0.0,11.1,89.8,1020.1,296.1,1.0,1.3,264.8,0.01,9.5,10.2,"13:59:36",1
"16/12/20","14:10",0.0,11.0,90.1,1020.4,278.4,1.2,1.6,256.3,0.01,9.5,10.3,"14:00:40",1
"16/12/20","14:20",0.0,10.8,90.2,1020.4,286.2,1.3,2.0,312.4,0.01,9.3,10.1,"14:19:44",1
"16/12/20","14:30",0.0,10.9,90.6,1020.4,281.1,1.2,1.9,317.5,0.04,9.5,10.1,"14:21:28",1
"16/12/20","14:40",0.0,11.1,90.5,1020.4,288.4,1.2,1.6,287.9,0.05,9.6,10.1,"14:36:56",1
"16/12/20","14:50",0.0,11.4,90.3,1020.1,281.2,1.1,1.8,304.2,0.10,9.9,10.2,"14:47:12",1
"16/12/20","15:00",0.0,11.6,88.3,1020.4,279.8,1.3,1.8,269.3,0.11,9.8,10.0,"14:58:16",1
"16/12/20","15:10",0.0,12.0,85.9,1020.4,268.6,1.2,2.0,259.0,0.16,9.8,10.3,"15:09:04",1
"16/12/20","15:20",0.0,12.4,84.5,1020.4,265.4,0.6,1.4,261.5,0.10,9.9,10.3,"15:10:08",1
"16/12/20","15:30",0.0,12.5,83.8,1020.6,283.1,0.7,1.6,307.5,0.07,9.9,10.3,"15:25:28",1
"16/12/20","15:40",0.0,12.1,83.5,1020.8,266.3,1.5,1.9,243.2,0.05,9.4,10.5,"15:33:04",1
"16/12/20","15:50",0.0,12.0,85.2,1020.6,283.7,1.1,1.9,301.7,0.06,9.6,10.4,"15:42:24",1
"16/12/20","16:00",0.0,12.2,84.7,1021.1,271.1,1.1,1.6,244.9,0.06,9.7,10.4,"15:52:08",1
"16/12/20","16:10",0.0,12.1,84.2,1020.8,269.4,1.1,1.7,245.9,0.04,9.6,10.4,"16:02:16",1
"16/12/20","16:20",0.0,11.8,84.8,1020.6,287.4,1.1,1.4,277.3,0.02,9.4,10.6,"16:10:40",1
"16/12/20","16:30",0.0,11.4,86.2,1020.6,287.2,1.2,1.6,307.3,0.00,9.2,10.4,"16:20:24",1
"16/12/20","16:40",0.0,11.3,87.6,1020.6,317.0,1.3,1.8,315.5,0.00,9.4,10.5,"16:39:12",1
"16/12/20","16:50",0.0,11.0,89.1,1020.1,289.0,1.2,1.3,304.5,0.00,9.3,10.4,"16:40:16",1
"16/12/20","17:00",0.0,10.6,90.3,1020.6,296.4,1.0,1.3,288.5,0.00,9.1,10.2,"16:58:56",1
"16/12/20","17:10",0.0,10.1,90.8,1020.4,281.3,1.3,1.7,270.6,0.00,8.7,10.4,"17:01:36",1
"16/12/20","17:20",0.0,9.6,91.8,1020.6,309.3,1.3,2.1,308.0,0.00,8.4,10.2,"17:18:48",1
"16/12/20","17:30",0.0,9.0,92.5,1020.8,320.7,1.8,2.2,325.0,0.00,7.9,10.2,"17:23:08",1
"16/12/20","17:40",0.0,8.5,93.5,1020.6,311.7,1.6,1.9,325.2,0.00,7.6,9.8,"17:30:08",1
"16/12/20","17:50",0.0,8.3,94.9,1020.8,305.5,1.8,2.2,295.0,0.00,7.6,9.7,"17:45:44",1
"16/12/20","18:00",0.0,8.2,95.8,1020.6,309.9,2.0,2.7,314.0,0.00,7.6,9.9,"17:58:10",1
"16/12/20","18:10",0.0,8.2,96.4,1020.8,306.2,2.1,2.8,318.7,0.00,7.7,9.6,"18:05:54",1
"16/12/20","18:20",0.0,7.9,96.3,1020.8,315.5,1.7,2.1,317.6,0.00,7.4,9.7,"18:16:48",1
"16/12/20","18:30",0.0,7.5,97.0,1021.3,308.6,2.0,2.5,316.9,0.00,7.1,9.6,"18:28:32",1
"16/12/20","18:40",0.0,7.6,97.5,1021.3,305.1,2.0,2.6,305.0,0.00,7.3,9.5,"18:31:12",1
"16/12/20","18:50",0.0,7.1,97.0,1021.1,301.3,1.2,1.6,311.8,0.00,6.7,9.4,"18:44:42",1
"16/12/20","19:00",0.0,6.6,97.9,1021.1,308.5,1.7,2.9,326.1,0.00,6.3,9.2,"18:58:32",1
"16/12/20","19:10",0.0,6.4,97.8,1021.3,303.0,1.8,2.2,293.6,0.00,6.1,9.3,"19:04:56",1
"16/12/20","19:20",0.0,6.1,98.2,1021.3,290.2,1.2,1.4,307.4,0.00,5.9,9.1,"19:15:36",1
"16/12/20","19:30",0.0,6.4,98.0,1021.8,308.5,2.0,2.6,316.9,0.00,6.1,8.9,"19:25:04",1
"16/12/20","19:40",0.0,6.7,97.4,1021.5,312.0,2.1,2.6,325.4,0.00,6.4,9.2,"19:31:04",1
"16/12/20","19:50",0.0,6.1,98.3,1021.8,291.1,1.0,2.1,309.9,0.00,5.9,9.1,"19:40:32",1
"16/12/20","20:00",0.0,6.3,98.2,1022.0,302.1,1.2,1.8,316.8,0.00,6.1,9.1,"19:59:04",1
"16/12/20","20:10",0.0,6.4,97.6,1022.0,315.0,2.2,3.2,325.3,0.00,6.1,8.6,"20:06:00",1
"16/12/20","20:20",0.0,5.8,98.4,1022.0,291.3,1.6,2.1,314.0,0.00,5.6,9.0,"20:11:28",1
"16/12/20","20:30",0.0,5.8,97.9,1022.0,292.8,1.0,1.4,306.4,0.00,5.5,8.7,"20:24:24",1
"16/12/20","20:40",0.0,5.5,99.2,1021.8,279.3,1.2,1.8,309.9,0.00,5.4,8.7,"20:37:52",1
"16/12/20","20:50",0.0,6.2,98.4,1022.5,305.7,2.2,3.3,322.1,0.00,6.0,8.7,"20:49:44",1
"16/12/20","21:00",0.0,6.2,98.5,1022.5,298.0,1.8,2.5,320.1,0.00,6.0,8.7,"20:50:08",1
"16/12/20","21:10",0.0,6.1,97.7,1022.3,308.7,2.1,3.1,317.6,0.00,5.8,8.4,"21:01:12",1
"16/12/20","21:20",0.0,5.2,98.9,1022.3,301.3,2.0,2.6,318.8,0.00,5.1,8.2,"21:10:56",1
"16/12/20","21:30",0.0,5.7,99.0,1022.0,288.4,1.7,2.2,312.3,0.00,5.6,8.5,"21:21:20",1
"16/12/20","21:40",0.0,6.0,98.7,1022.5,297.4,1.7,2.1,292.9,0.00,5.9,8.5,"21:31:36",1
"16/12/20","21:50",0.0,6.1,98.4,1022.5,291.1,2.0,2.7,314.9,0.00,5.9,8.3,"21:42:32",1
"16/12/20","22:00",0.0,6.0,98.6,1022.5,283.0,0.8,1.6,281.8,0.00,5.8,8.4,"21:51:04",1
"16/12/20","22:10",0.0,6.1,98.5,1022.0,306.1,1.5,2.7,312.4,0.00,5.9,8.2,"22:08:16",1
"16/12/20","22:20",0.0,5.6,97.9,1022.0,297.1,1.6,2.9,309.5,0.00,5.3,8.1,"22:12:48",1
"16/12/20","22:30",0.0,5.0,99.5,1022.3,268.6,1.0,1.6,309.3,0.00,5.0,8.3,"22:28:16",1
"16/12/20","22:40",0.0,5.3,98.5,1022.0,284.2,1.5,1.9,274.6,0.00,5.1,8.1,"22:34:40",1
"16/12/20","22:50",0.0,5.0,98.6,1022.5,287.0,1.1,2.0,308.3,0.00,4.8,8.1,"22:43:12",1
"16/12/20","23:00",0.0,5.1,98.9,1022.3,312.6,2.3,3.5,318.2,0.00,5.0,7.8,"22:55:04",1
"16/12/20","23:10",0.0,5.2,98.8,1022.5,290.9,1.5,2.1,318.3,0.00,5.1,7.8,"23:02:24",1
"16/12/20","23:20",0.0,6.0,99.6,1022.0,293.3,2.5,4.2,307.3,0.00,6.0,7.8,"23:18:40",1
"16/12/20","23:30",0.0,6.8,98.7,1022.3,311.7,3.2,4.3,317.8,0.00,6.6,8.0,"23:20:40",1
"16/12/20","23:40",0.0,6.9,98.6,1022.3,302.4,2.7,3.5,327.4,0.00,6.7,7.8,"23:31:52",1
"16/12/20","23:50",0.0,6.9,98.5,1022.5,313.9,2.5,3.4,318.5,0.00,6.7,7.7,"23:43:44",1
"16/12/20","24:00",0.0,6.6,97.6,1022.5,289.1,1.5,2.6,331.4,0.00,6.3,8.0,"23:50:40",1
